�������l�o���
Date,Time,MP-1(��Sv/h),MP-2(��Sv/h),MP-3(��Sv/h),MP-4(��Sv/h),MP-5(��Sv/h),MP-6(��Sv/h),MP-7(��Sv/h),MP-8(��Sv/h),����,����(m/s),���J
2019/02/02,00:00,0.777,1.159,0.807,1.490,1.065,0.444,0.792,0.752,�k,2.6,��
2019/02/02,00:10,0.778,1.156,0.808,1.493,1.065,0.445,0.793,0.752,�k��,1.9,��
2019/02/02,00:20,0.778,1.157,0.808,1.493,1.062,0.446,0.795,0.752,-,CALM,��
2019/02/02,00:30,0.777,1.159,0.807,1.491,1.066,0.446,0.794,0.751,�k�k��,1.9,��
2019/02/02,00:40,0.779,1.158,0.810,1.491,1.064,0.447,0.793,0.750,�k�k��,2.5,��
2019/02/02,00:50,0.778,1.158,0.808,1.490,1.065,0.446,0.792,0.753,�k,3.1,��
2019/02/02,01:00,0.778,1.160,0.808,1.493,1.062,0.444,0.792,0.752,�k�k��,1.5,��
2019/02/02,01:10,0.778,1.158,0.804,1.493,1.063,0.446,0.794,0.753,��,0.8,��
2019/02/02,01:20,0.777,1.159,0.806,1.492,1.064,0.445,0.793,0.751,-,CALM,��
2019/02/02,01:30,0.778,1.159,0.806,1.494,1.061,0.445,0.793,0.752,��쐼,0.9,��
2019/02/02,01:40,0.777,1.158,0.808,1.490,1.064,0.445,0.791,0.752,-,CALM,��
2019/02/02,01:50,0.777,1.157,0.807,1.492,1.065,0.446,0.792,0.753,��,0.9,��
2019/02/02,02:00,0.781,1.158,0.807,1.493,1.065,0.446,0.793,0.752,��쓌,1.9,��
2019/02/02,02:10,0.779,1.158,0.807,1.493,1.062,0.448,0.791,0.752,��쓌,3.8,��
2019/02/02,02:20,0.780,1.158,0.807,1.493,1.063,0.445,0.792,0.752,��,5.3,��
2019/02/02,02:30,0.776,1.160,0.806,1.493,1.063,0.447,0.794,0.752,��쐼,4.6,��
2019/02/02,02:40,0.777,1.159,0.809,1.493,1.062,0.446,0.793,0.751,��쐼,3.4,��
2019/02/02,02:50,0.778,1.156,0.806,1.494,1.065,0.447,0.794,0.752,�쐼,5.1,��
2019/02/02,03:00,0.778,1.156,0.808,1.493,1.060,0.445,0.793,0.750,��쐼,6.0,��
2019/02/02,03:10,0.777,1.158,0.808,1.492,1.064,0.446,0.795,0.751,��쐼,5.6,��
2019/02/02,03:20,0.780,1.157,0.807,1.493,1.062,0.445,0.794,0.751,��쐼,5.0,��
2019/02/02,03:30,0.777,1.157,0.807,1.492,1.064,0.446,0.793,0.753,��쐼,6.0,��
2019/02/02,03:40,0.777,1.158,0.808,1.494,1.061,0.445,0.793,0.753,��쐼,5.1,��
2019/02/02,03:50,0.777,1.157,0.806,1.493,1.061,0.445,0.793,0.751,��,5.8,��
2019/02/02,04:00,0.777,1.157,0.808,1.494,1.059,0.446,0.793,0.752,��,4.2,��
2019/02/02,04:10,0.777,1.158,0.809,1.491,1.061,0.446,0.796,0.752,��쓌,3.1,��
2019/02/02,04:20,0.776,1.156,0.807,1.494,1.063,0.444,0.794,0.751,��,1.1,��
2019/02/02,04:30,0.777,1.158,0.809,1.492,1.063,0.446,0.793,0.750,��쓌,1.5,��
2019/02/02,04:40,0.776,1.157,0.807,1.492,1.061,0.448,0.794,0.752,��,4.0,��
2019/02/02,04:50,0.776,1.158,0.806,1.493,1.061,0.445,0.793,0.753,��,3.9,��
2019/02/02,05:00,0.779,1.157,0.810,1.492,1.064,0.447,0.793,0.753,��쐼,2.9,��
2019/02/02,05:10,0.777,1.158,0.808,1.494,1.064,0.447,0.792,0.750,��쐼,2.3,��
2019/02/02,05:20,0.779,1.157,0.807,1.495,1.064,0.447,0.793,0.752,��,3.2,��
2019/02/02,05:30,0.780,1.158,0.807,1.497,1.063,0.447,0.792,0.750,��,5.0,��
2019/02/02,05:40,0.778,1.157,0.810,1.492,1.062,0.446,0.794,0.752,��,5.3,��
2019/02/02,05:50,0.779,1.157,0.806,1.494,1.064,0.445,0.794,0.751,��,5.3,��
2019/02/02,06:00,0.777,1.159,0.808,1.494,1.062,0.446,0.795,0.754,��,5.6,��
2019/02/02,06:10,0.780,1.157,0.808,1.495,1.064,0.446,0.792,0.751,��,4.7,��
2019/02/02,06:20,0.777,1.158,0.809,1.492,1.064,0.447,0.793,0.752,��,4.4,��
2019/02/02,06:30,0.779,1.158,0.807,1.496,1.065,0.446,0.794,0.752,��,2.2,��
2019/02/02,06:40,0.778,1.156,0.808,1.491,1.065,0.446,0.794,0.751,��,1.7,��
2019/02/02,06:50,0.778,1.153,0.809,1.491,1.065,0.445,0.795,0.751,��,3.1,��
2019/02/02,07:00,0.779,1.155,0.808,1.492,1.065,0.446,0.792,0.750,��,5.5,��
2019/02/02,07:10,0.777,1.154,0.806,1.492,1.063,0.447,0.793,0.754,��,6.0,��
2019/02/02,07:20,0.778,1.152,0.808,1.493,1.064,0.447,0.796,0.751,��,7.5,��
2019/02/02,07:30,0.779,1.153,0.809,1.491,1.062,0.445,0.795,0.753,���k��,7.1,��
2019/02/02,07:40,0.778,1.154,0.806,1.494,1.065,0.448,0.795,0.751,���k��,6.8,��
2019/02/02,07:50,0.778,1.159,0.808,1.493,1.064,0.447,0.795,0.753,���k��,6.8,��
2019/02/02,08:00,0.777,1.158,0.808,1.492,1.063,0.447,0.796,0.752,���k��,7.8,��
2019/02/02,08:10,0.781,1.157,0.809,1.493,1.063,0.448,0.798,0.752,�k��,7.2,��
2019/02/02,08:20,0.780,1.159,0.810,1.494,1.064,0.445,0.795,0.753,�k��,5.5,��
2019/02/02,08:30,0.780,1.156,0.810,1.492,1.064,0.447,0.796,0.753,�k�k��,2.9,��
2019/02/02,08:40,0.781,1.156,0.809,1.495,1.063,0.446,0.796,0.753,�k�k��,1.5,��
2019/02/02,08:50,0.781,1.157,0.807,1.493,1.063,0.447,0.797,0.751,�k�k��,2.3,��
2019/02/02,09:00,0.780,1.154,0.808,1.495,1.062,0.448,0.798,0.752,�k��,3.1,��
2019/02/02,09:10,0.779,1.152,0.810,1.494,1.065,0.447,0.796,0.753,���k��,5.0,��
2019/02/02,09:20,0.781,1.155,0.809,1.495,1.062,0.446,0.798,0.752,���k��,6.8,��
2019/02/02,09:30,0.784,1.155,0.810,1.494,1.064,0.446,0.797,0.752,���k��,9.8,��
2019/02/02,09:40,0.784,1.157,0.809,1.494,1.067,0.448,0.795,0.753,���k��,10.0,��
2019/02/02,09:50,0.782,1.152,0.810,1.494,1.066,0.449,0.795,0.752,���k��,7.0,��
2019/02/02,10:00,0.780,1.152,0.809,1.497,1.064,0.448,0.796,0.755,��,8.6,��
2019/02/02,10:10,0.781,1.154,0.810,1.494,1.066,0.448,0.796,0.754,���k��,9.9,��
2019/02/02,10:20,0.783,1.154,0.810,1.495,1.066,0.449,0.795,0.753,���k��,7.9,��
2019/02/02,10:30,0.783,1.152,0.808,1.496,1.067,0.449,0.796,0.753,���k��,8.7,��
2019/02/02,10:40,0.782,1.154,0.811,1.495,1.064,0.449,0.796,0.753,���k��,9.8,��
2019/02/02,10:50,0.781,1.156,0.811,1.496,1.066,0.448,0.797,0.754,���k��,12.0,��
2019/02/02,11:00,0.783,1.157,0.811,1.498,1.069,0.448,0.797,0.755,���k��,9.6,��
2019/02/02,11:10,0.785,1.157,0.811,1.493,1.067,0.448,0.796,0.755,���k��,11.3,��
2019/02/02,11:20,0.783,1.155,0.812,1.494,1.070,0.447,0.796,0.754,���k��,9.5,��
2019/02/02,11:30,0.784,1.155,0.809,1.494,1.068,0.449,0.797,0.753,���k��,10.2,��
2019/02/02,11:40,0.783,1.160,0.812,1.496,1.066,0.448,0.796,0.754,���k��,9.1,��
2019/02/02,11:50,0.785,1.161,0.812,1.499,1.067,0.449,0.796,0.753,���k��,9.0,��
2019/02/02,12:00,0.784,1.160,0.811,1.498,1.069,0.449,0.797,0.754,���k��,7.8,��
2019/02/02,12:10,0.784,1.161,0.811,1.498,1.070,0.448,0.797,0.755,���k��,11.3,��
2019/02/02,12:20,0.783,1.159,0.813,1.498,1.068,0.449,0.796,0.756,���k��,8.4,��
2019/02/02,12:30,0.785,1.160,0.811,1.497,1.069,0.451,0.796,0.756,���k��,9.2,��
2019/02/02,12:40,0.786,1.159,0.812,1.499,1.069,0.449,0.796,0.755,���k��,7.8,��
2019/02/02,12:50,0.784,1.157,0.811,1.501,1.071,0.450,0.797,0.756,���쐼,7.9,��
2019/02/02,13:00,0.786,1.153,0.811,1.500,1.069,0.450,0.796,0.755,���쐼,7.6,��
2019/02/02,13:10,0.785,1.156,0.811,1.499,1.070,0.451,0.796,0.755,��,7.9,��
2019/02/02,13:20,0.785,1.155,0.813,1.500,1.069,0.449,0.796,0.754,��,6.7,��
2019/02/02,13:30,0.783,1.158,0.813,1.497,1.068,0.450,0.796,0.754,���쐼,6.0,��
2019/02/02,13:40,0.785,1.154,0.814,1.500,1.069,0.452,0.797,0.753,���쐼,6.3,��
2019/02/02,13:50,0.784,1.156,0.814,1.501,1.068,0.450,0.795,0.752,���k��,7.1,��
2019/02/02,14:00,0.784,1.155,0.811,1.501,1.068,0.452,0.798,0.752,��,6.7,��
2019/02/02,14:10,0.784,1.155,0.813,1.499,1.072,0.451,0.798,0.753,��,7.7,��
2019/02/02,14:20,0.785,1.152,0.813,1.499,1.071,0.453,0.798,0.752,���k��,8.4,��
2019/02/02,14:30,0.784,1.156,0.814,1.500,1.070,0.452,0.797,0.753,��,7.0,��
2019/02/02,14:40,0.784,1.156,0.811,1.499,1.071,0.452,0.798,0.752,��,6.7,��
2019/02/02,14:50,0.785,1.158,0.814,1.499,1.069,0.452,0.798,0.752,��,8.7,��
2019/02/02,15:00,0.784,1.156,0.811,1.500,1.072,0.452,0.797,0.751,��,7.8,��
2019/02/02,15:10,0.785,1.157,0.812,1.501,1.069,0.451,0.798,0.751,���k��,5.8,��
2019/02/02,15:20,0.783,1.158,0.811,1.501,1.072,0.452,0.797,0.752,���k��,6.8,��
2019/02/02,15:30,0.782,1.160,0.812,1.500,1.072,0.451,0.796,0.754,�k��,4.9,��
2019/02/02,15:40,0.784,1.165,0.813,1.501,1.071,0.452,0.797,0.754,�k,4.5,��
2019/02/02,15:50,0.782,1.164,0.810,1.501,1.068,0.451,0.797,0.755,�k�k��,6.8,��
2019/02/02,16:00,0.782,1.165,0.812,1.501,1.070,0.451,0.796,0.755,�k�k��,8.1,��
2019/02/02,16:10,0.784,1.165,0.811,1.500,1.070,0.451,0.797,0.753,�k�k��,8.1,��
2019/02/02,16:20,0.784,1.164,0.812,1.500,1.070,0.451,0.796,0.754,�k�k��,7.1,��
2019/02/02,16:30,0.783,1.164,0.811,1.500,1.072,0.450,0.796,0.754,�k�k��,7.4,��
2019/02/02,16:40,0.784,1.166,0.814,1.500,1.069,0.450,0.796,0.754,�k�k��,5.8,��
2019/02/02,16:50,0.782,1.163,0.810,1.497,1.069,0.449,0.796,0.755,�k�k��,6.9,��
2019/02/02,17:00,0.782,1.166,0.811,1.500,1.071,0.449,0.797,0.755,�k�k��,7.6,��
2019/02/02,17:10,0.785,1.164,0.812,1.495,1.070,0.450,0.798,0.754,�k�k��,7.6,��
2019/02/02,17:20,0.784,1.165,0.811,1.499,1.072,0.449,0.796,0.753,�k�k��,5.7,��
2019/02/02,17:30,0.784,1.167,0.813,1.500,1.073,0.448,0.796,0.755,�k,5.9,��
2019/02/02,17:40,0.783,1.165,0.811,1.498,1.071,0.448,0.797,0.752,�k,4.9,��
2019/02/02,17:50,0.783,1.166,0.815,1.500,1.071,0.448,0.797,0.755,�k�k��,6.5,��
2019/02/02,18:00,0.785,1.162,0.812,1.500,1.070,0.447,0.797,0.754,�k�k��,5.9,��
2019/02/02,18:10,0.784,1.166,0.810,1.500,1.071,0.447,0.797,0.754,�k�k��,5.4,��
2019/02/02,18:20,0.782,1.163,0.811,1.500,1.070,0.449,0.797,0.752,�k�k��,5.7,��
2019/02/02,18:30,0.783,1.164,0.811,1.498,1.072,0.448,0.795,0.753,�k�k��,5.8,��
2019/02/02,18:40,0.783,1.165,0.811,1.500,1.071,0.447,0.796,0.753,�k�k��,5.5,��
2019/02/02,18:50,0.782,1.164,0.812,1.498,1.071,0.447,0.796,0.754,�k�k��,4.7,��
2019/02/02,19:00,0.782,1.163,0.809,1.496,1.070,0.449,0.795,0.753,�k�k��,3.4,��
2019/02/02,19:10,0.783,1.164,0.810,1.496,1.070,0.448,0.795,0.754,�k�k��,2.3,��
2019/02/02,19:20,0.783,1.165,0.810,1.497,1.073,0.448,0.794,0.752,�k�k��,2.0,��
2019/02/02,19:30,0.782,1.165,0.811,1.497,1.070,0.447,0.795,0.751,�k��,2.0,��
2019/02/02,19:40,0.783,1.165,0.811,1.497,1.072,0.447,0.796,0.752,��,2.0,��
2019/02/02,19:50,0.783,1.164,0.808,1.500,1.069,0.449,0.795,0.753,��,2.6,��
2019/02/02,20:00,0.780,1.163,0.809,1.498,1.070,0.446,0.793,0.752,���k��,3.3,��
2019/02/02,20:10,0.781,1.164,0.811,1.499,1.069,0.446,0.795,0.753,�k��,4.6,��
2019/02/02,20:20,0.783,1.165,0.811,1.498,1.072,0.446,0.794,0.752,�k��,4.8,��
2019/02/02,20:30,0.781,1.164,0.810,1.496,1.071,0.446,0.795,0.753,���k��,3.5,��
2019/02/02,20:40,0.786,1.165,0.811,1.499,1.072,0.447,0.793,0.753,���k��,3.3,��
2019/02/02,20:50,0.782,1.164,0.811,1.497,1.070,0.446,0.793,0.752,���k��,2.5,��
2019/02/02,21:00,0.782,1.162,0.812,1.497,1.071,0.447,0.795,0.751,���k��,3.0,��
2019/02/02,21:10,0.780,1.161,0.810,1.496,1.070,0.445,0.793,0.752,�k��,3.1,��
2019/02/02,21:20,0.783,1.163,0.809,1.497,1.069,0.446,0.795,0.753,�k��,3.0,��
2019/02/02,21:30,0.779,1.160,0.812,1.498,1.070,0.445,0.795,0.751,�k��,1.9,��
2019/02/02,21:40,0.782,1.163,0.810,1.497,1.070,0.445,0.794,0.751,�k��,2.0,��
2019/02/02,21:50,0.779,1.162,0.810,1.494,1.069,0.446,0.794,0.752,�k��,1.5,��
2019/02/02,22:00,0.780,1.163,0.806,1.497,1.068,0.447,0.792,0.753,���k��,1.7,��
2019/02/02,22:10,0.782,1.163,0.809,1.496,1.069,0.445,0.793,0.752,���쐼,0.6,��
2019/02/02,22:20,0.782,1.162,0.811,1.498,1.071,0.445,0.795,0.751,-,CALM,��
2019/02/02,22:30,0.782,1.163,0.809,1.497,1.071,0.447,0.793,0.752,��쐼,0.8,��
2019/02/02,22:40,0.783,1.162,0.809,1.499,1.073,0.446,0.794,0.752,��,0.6,��
2019/02/02,22:50,0.782,1.165,0.810,1.500,1.068,0.445,0.793,0.752,-,CALM,��
2019/02/02,23:00,0.781,1.164,0.810,1.496,1.070,0.446,0.793,0.752,�쐼,1.2,��
2019/02/02,23:10,0.781,1.163,0.810,1.497,1.070,0.446,0.794,0.753,-,CALM,��
2019/02/02,23:20,0.782,1.162,0.809,1.496,1.069,0.446,0.794,0.752,���쓌,1.2,��
2019/02/02,23:30,0.781,1.163,0.809,1.501,1.070,0.447,0.794,0.751,�쓌,0.9,��
2019/02/02,23:40,0.781,1.163,0.808,1.495,1.071,0.447,0.793,0.751,�k��,0.6,��
2019/02/02,23:50,0.780,1.164,0.811,1.495,1.066,0.447,0.793,0.752,���k��,0.6,��
